Location: Boneville
(33.4331°N, 82.4399°W)
Time: 11:05:46
(UTC+00:00)

Tiangong - Visible Passes

Search period start: 05 December 2021 00:00
Search period end: 15 December 2021 00:00
Orbit: 380 x 384 km, 41.5° (Epoch: 05 December)

Date Brightness Start Highest point End Pass type
(mag) Time Alt. Az. Time Alt. Az. Time Alt. Az.
05 Dec 3.8 00:23:19 10° SSW 00:24:05 15° SSW 00:24:05 15° SSW visible
05 Dec 3.0 23:23:46 10° S 23:25:54 17° SE 23:26:47 15° ESE visible
06 Dec 1.4 23:58:50 10° SW 00:01:35 59° SSW 00:01:35 59° SSW visible
07 Dec 2.2 22:58:41 10° SSW 23:01:33 32° SE 23:04:07 12° E visible
08 Dec 4.0 00:35:19 10° W 00:36:17 17° W 00:36:17 17° W visible
08 Dec 1.2 23:34:34 10° WSW 23:37:41 64° NNW 23:38:44 37° NE visible
10 Dec 3.1 00:11:21 10° WNW 00:13:16 23° NW 00:13:16 23° NW visible
10 Dec 2.0 23:10:24 10° W 23:13:22 38° NNW 23:15:36 15° NE visible
11 Dec 2.8 23:47:20 10° WNW 23:49:49 21° N 23:50:02 21° N visible
13 Dec 4.0 00:24:05 10° NW 00:24:25 12° NW 00:24:25 12° NW visible
13 Dec 3.0 23:23:10 10° NW 23:25:29 19° N 23:26:39 16° NNE visible
